Regional Weather Roundup
Issued by NWS Upton, NY

Current Version | Previous Version | Graphics & Text | Print | Product List | Glossary Off
Versions: 1 2 3 4 5 6 7 8 9 10 11 12 13 14 15 16 17 18 19 20 21 22 23 24 25 26 27

000
ASUS41 KOKX 221208
RWROKX

REGIONAL WEATHER ROUNDUP
NATIONAL WEATHER SERVICE NEW YORK NY
700 AM EST SUN JAN 22 2017

NOTE: "FAIR" INDICATES FEW OR NO CLOUDS BELOW 12,000 FEET WITH NO
SIGNIFICANT WEATHER AND/OR OBSTRUCTIONS TO VISIBILITY.

NYZ071-072-176-178-NJZ106-104-221300-
NEW YORK CITY METRO AREA

CITY           SKY/WX    TMP DP  RH WIND       PRES   REMARKS
Central Park   CLOUDY    43  43 100 NW3       29.76R FOG
Wall St Helipt CLOUDY    44  43  96 SW3       29.76R
LaGuardia APRT FOG       45  44  97 NE3       29.74R VSB 1
Kennedy INTL   CLOUDY    44  44 100 CALM      29.75S FOG
Breezy Point     N/A     43 N/A N/A NE1         N/A
Newark/Liberty FOG       44  43  96 NW5       29.74S VSB 1/2
Teterboro      FOG       45  44  97 CALM      29.73S VSB 1/4
$$

NYZ177-179-078>081-221300-
LONG ISLAND NEW YORK

CITY           SKY/WX    TMP DP  RH WIND       PRES   REMARKS
Jones Beach      N/A     41 N/A N/A CALM        N/A
Matinecock PT    N/A     43 N/A N/A SE2         N/A
Farmingdale    FOG       44  43  96 CALM      29.75R VSB 1/4
MacArthur/ISP  FOG       43  43 100 SE3       29.75R VSB 1/4
Shirley        FOG       42  42 100 CALM      29.76R VSB 1
Westhampton    CLOUDY    42  41  96 CALM      29.77R FOG
Southampton    NOT AVBL
Bridgehampton  NOT AVBL
East Hampton   CLOUDY    39  39  99 NE3       29.76R FOG
Montauk          N/A     41  41 100 N5        29.78R
$$

NYZ052-065-067-221300-
HUDSON VALLEY

CITY           SKY/WX    TMP DP  RH WIND       PRES   REMARKS
White Plains   FOG       43  42  97 CALM      29.73R VSB 1/4
Newburgh       NOT AVBL
Montgomery     FOG       40  39  97 CALM      29.73R VSB 1/4
Poughkeepsie   FOG       39  39 100 CALM      29.73S VSB 3/4
Albany         FOG       39  37  92 N3        29.76R VSB 1/2
$$

NJZ001-105-106-008-010-013-015-019>022-104-221300-
NEW JERSEY

CITY           SKY/WX    TMP DP  RH WIND       PRES   REMARKS
Newark/Liberty FOG       44  43  96 NW5       29.74S VSB 1/2
Teterboro      FOG       45  44  97 CALM      29.73S VSB 1/4
Caldwell       FOG       43  43 100 CALM      29.74S VSB 1/2
Somerville     FOG       43  42  97 CALM      29.72R VSB 3/4
Linden         CLOUDY    44  43  99 CALM      29.74S FOG
Sussex         FOG       40  40 100 CALM      29.73  VSB 1/4
Andover          N/A     39  38  96 CALM      29.71F
Trenton        FOG       44  44 100 N6        29.71F VSB 1/4
Millville      LGT RAIN  46  46 100 NE3       29.67F FOG
Atlantic City  LGT RAIN  45  43  93 NE6       29.68F VSB 1
Wrightstown    CLOUDY    45  45 100 NE5       29.68S FOG
Toms River     CLOUDY    45  44  97 NE7       29.71F FOG
Belmar         CLOUDY    44  44 100 NE3       29.73S FOG
$$

PAZ047>061-062-071-221300-
EASTERN PENNSYLVANIA

CITY           SKY/WX    TMP DP  RH WIND       PRES   REMARKS
Philadelphia   CLOUDY    46  45  96 NE7       29.71S FOG
Allentown      FOG       42  40  92 E5        29.71S VSB 1/4
Scranton       CLOUDY    40  40 100 E5        29.71S
$$

CTZ002-004>006-009-010-012-RIZ004-006-007-MAZ004-011-015-221300-
SOUTHERN NEW ENGLAND
 IN CT

CITY           SKY/WX    TMP DP  RH WIND       PRES   REMARKS
Bradley INTL   FOG       38  38 100 CALM      29.76R VSB 1/2
Hartford       CLOUDY    37  37 100 N3        29.76S FOG
Danbury        CLOUDY    40  38  93 CALM      29.75R FOG
Wtrbury/Oxford CLOUDY    41  37  87 CALM      29.74R FOG
Bridgeport     FOG       41  39  93 E5        29.74S VSB 1/4
Meriden        CLOUDY    40  38  93 CALM      29.76R FOG
New Haven      FOG       41  41 100 CALM      29.74S VSB 1/4
Chester        FOG       39  39 100 CALM      29.74R VSB 1/2
Groton         FOG       39  39 100 NE3       29.75F VSB 1/4
Wilimantic     CLOUDY    36  35  96 NE6       29.77S FOG     WCI  31

 IN RI

CITY           SKY/WX    TMP DP  RH WIND       PRES   REMARKS
Providence     CLOUDY    37  36  96 N6        29.78R FOG     WCI  32
Block Island   NOT AVBL
Westerly       FOG       39  36  89 N6        29.76F VSB 1/4 WCI  35
 IN MA

CITY           SKY/WX    TMP DP  RH WIND       PRES   REMARKS
Boston         MOCLDY    42  41  96 NW5       29.79R
Worcester      CLOUDY    43  40  89 CALM      29.75R
Westfield      FOG       36  36 100 N3        29.76S VSB 1/2
Provincetown   CLOUDY    40  39  97 SW7       29.79R
Nantucket      FOG       40  39  97 NW7       29.77R VSB 3/4
$$

ANZ330-335-338-340-345-350-353-355-221300-
COASTAL MARINE OBSERVATIONS


STATION/POSITION TIME  SKY/WX   TEMP    WIND        PRES    VSBY  WAVE
                                AIR SEA DIR/SP/G                  HT/PER
                 (UTC)          (F)     (DEG/KT/KT) (MB)    (MI)  (FT/S)
NY HARB ENTRANCE 1050            44 44   CALM  /  2 1007.0          3/14
20 S FIRE ISLAND 1150            45 45   10/  6/  6 1006.6          3/14
GREAT SOUTH BAY  NOT AVBL
23 SSW MONTAUK P 1050            45 47  210/  4/  6 1007.3          3/13
15 E BARNEGAT LI 1130               47                N/A           4/13
HUDSON CANYON    1050            51 51              1007.1          5/12
KINGS POINT      1142            44 40              1007.0
EXECUTION ROCKS  1145            43      CALM  /  2   N/A
CENTRAL LI SOUND 1115            40      90/  4/  6   N/A           0
EASTERN LI SOUND NOT AVBL
ROBBINS REEF     1142            43     180/  2/  3 1007.4
$$


>>>>>>>>>>>>>>>>>>>>>>>>>>>> KEY <<<<<<<<<<<<<<<<<<<<<<<<<<<
>                                                          <
>     SKY/WX - Sky Condition/Present Weather               <
>     TMP    - Temperature in Fahrenheit                   <
>     DP     - Dew Point in Fahrenheit                     <
>     RH     - Relative Humidity in Percent                <
>     WIND   - Direction (from) and Speed in MPH           <
>     PRES   - Mean Sea Level Pressure (inches of Hg)      <
>     WCI    - Wind Chill Index                            <
>     VSB    - VISIBILITY IN MILES                         <
>     HX     - HEAT INDEX                                  <
>     TC     - TEMPERATURE IN CELSIUS                      <
>     VRB    - VARIABLE WIND DIRECTION                     <
>                                                          <
>>>>>>>>>>>>>>>>>>>>>>>>>>>> KEY <<<<<<<<<<<<<<<<<<<<<<<<<<<




USA.gov is the U.S. government's official web portal to all federal, state and local government web resources and services.